STARLINK-36264

Last updated on Sun Apr 12 2026 00:02:08 GMT+0000 (Coordinated Universal Time)

1 68307U 26057P 26101.50002315 -.00180071 00000+0 -12283-2 0 9996 2 68307 97.2843 225.5500 0001357 72.6963 90.0751 15.75259023 4642
UTC large
Height (km)
Speed (km/s)
/
Latitude / Longitude
Inclination (degrees)
Orbital Period (minutes)
Azimuth
Elevation
Range (km)
Doppler Factor

Next 0 passes for location: London (51.5072 / 0.1276)

Sorry there are no passes over London.
STARLINK-36264